Weather History for KOKZ - March, 2014

Change the Weather History Date:

Thursday, March 20, 2014

  Actual Average Record
Temperature  
Mean Temperature 56 °F -  
Max Temperature 72 °F 71 °F 72 °F (2014)
Min Temperature 41 °F 46 °F 41 °F (2014)
Degree Days  
Heating Degree Days 8    
Growing Degree Days 6 (Base 50)    
Moisture  
Dew Point 39 °F    
Average Humidity 65    
Maximum Humidity 100    
Minimum Humidity 16    
Precipitation  
Precipitation 0.00 in - - ()
Sea Level Pressure  
Sea Level Pressure 30.07 in    
Wind  
Wind Speed 2 mph (WNW)    
Max Wind Speed 13 mph    
Max Gust Speed 17 mph    
Visibility 9 miles    
Events      
Averages and records for this station are not official NWS values.
T = Trace of Precipitation, MM = Missing Value Source: NWS Daily Summary

Daily Weather History Graph

Daily Weather History Graph

Search for Another Location

Airport or City:

Trip Planner

Search our weather history database for the weather conditions in past years. The results will help you decide how hot, cold, wet, or windy it might be!

Date:

Astronomy

Mar. 20, 2014 Rise Set
Actual Time 7:35 AM EDT 7:42 PM EDT
Civil Twilight 7:10 AM EDT 8:07 PM EDT
Nautical Twilight 6:41 AM EDT 8:36 PM EDT
Astronomical Twilight 6:12 AM EDT 9:05 PM EDT
Moon 11:48 PM EDT (3/20) 9:52 AM EDT (3/20)
Length of Visible Light 12h 57m
Length of Day
12h 07m
Waning Gibbous, 84% of the Moon is Illuminated
Mar 20
Waning Gibbous
Mar 23
Last Quarter
Mar 30
New
Apr 7
First Quarter
Apr 15
Full

Hourly Weather History & Observations

Time (EDT) Temp. Dew Point Humidity Pressure Visibility Wind Dir Wind Speed Gust Speed Precip Events Conditions
12:15 AM 46.8 °F 44.8 °F 93% 30.09 in 10.0 mi Calm Calm - N/A   Clear
12:35 AM 46.6 °F 45.0 °F 94% 30.09 in 10.0 mi Calm Calm - N/A   Clear
12:55 AM 46.2 °F 44.8 °F 95% 30.09 in 10.0 mi Calm Calm - N/A   Clear
1:15 AM 46.4 °F 44.8 °F 94% 30.08 in 10.0 mi Calm Calm - N/A   Clear
1:35 AM 46.6 °F 45.3 °F 95% 30.08 in 10.0 mi Calm Calm - N/A   Clear
2:15 AM 46.2 °F 44.8 °F 95% 30.08 in 10.0 mi Calm Calm - N/A   Clear
2:35 AM 44.8 °F 43.5 °F 95% 30.08 in 10.0 mi Calm Calm - N/A   Clear
2:55 AM 44.1 °F 42.8 °F 95% 30.08 in 10.0 mi Calm Calm - N/A   Clear
3:15 AM 44.8 °F 43.9 °F 97% 30.08 in 10.0 mi Calm Calm - N/A   Clear
3:35 AM 44.8 °F 43.7 °F 96% 30.07 in 10.0 mi Calm Calm - N/A   Scattered Clouds
3:55 AM 44.4 °F 43.3 °F 96% 30.07 in 7.0 mi Calm Calm - N/A   Scattered Clouds
4:15 AM 44.2 °F 43.3 °F 97% 30.07 in 10.0 mi Calm Calm - N/A   Scattered Clouds
4:35 AM 43.9 °F 43.0 °F 97% 30.07 in 10.0 mi Calm Calm - N/A   Scattered Clouds
4:55 AM 43.9 °F 43.0 °F 97% 30.07 in 7.0 mi Calm Calm - N/A   Clear
5:15 AM 43.2 °F 42.3 °F 97% 30.07 in 7.0 mi Calm Calm - N/A   Clear
5:35 AM 43.0 °F 42.3 °F 97% 30.06 in 7.0 mi Calm Calm - N/A   Clear
5:55 AM 42.8 °F 42.1 °F 97% 30.07 in 5.0 mi Calm Calm - N/A   Clear
6:15 AM 42.1 °F 41.4 °F 97% 30.07 in 7.0 mi Calm Calm - N/A   Clear
6:35 AM 41.9 °F 41.2 °F 97% 30.07 in 5.0 mi Calm Calm - N/A   Clear
6:55 AM 41.7 °F 41.0 °F 97% 30.07 in 5.0 mi Calm Calm - N/A   Clear
7:15 AM 41.4 °F 41.0 °F 99% 30.08 in 5.0 mi Calm Calm - N/A   Clear
7:35 AM 41.4 °F 40.8 °F 98% 30.09 in 7.0 mi Calm Calm - N/A   Clear
7:55 AM 42.4 °F 41.9 °F 98% 30.08 in 5.0 mi Calm Calm - N/A   Clear
8:15 AM 42.4 °F 41.9 °F 98% 30.10 in 5.0 mi Calm Calm - N/A   Clear
8:35 AM 44.6 °F 44.4 °F 99% 30.10 in 7.0 mi Calm Calm - N/A   Clear
8:55 AM 46.8 °F 46.6 °F 99% 30.10 in 7.0 mi Calm Calm - N/A   Clear
9:15 AM 48.2 °F 48.2 °F 100% 30.11 in 7.0 mi Calm Calm - N/A   Clear
9:35 AM 49.1 °F 48.4 °F 97% 30.11 in 7.0 mi Calm Calm - N/A   Clear
9:55 AM 51.1 °F 50.2 °F 97% 30.11 in 7.0 mi Calm Calm - N/A   Clear
10:15 AM 53.1 °F 49.8 °F 89% 30.12 in 10.0 mi West 4.6 mph - N/A   Clear
10:35 AM 55.6 °F 49.3 °F 79% 30.12 in 10.0 mi WNW 3.5 mph - N/A   Clear
10:55 AM 57.2 °F 49.3 °F 75% 30.13 in 10.0 mi West 4.6 mph - N/A   Clear
11:15 AM 58.6 °F 48.7 °F 70% 30.12 in 10.0 mi WNW 4.6 mph - N/A   Clear
11:35 AM 60.1 °F 48.4 °F 65% 30.11 in 10.0 mi West 3.5 mph - N/A   Clear
11:55 AM 61.5 °F 47.1 °F 59% 30.11 in 10.0 mi West 6.9 mph - N/A   Clear
12:15 PM 63.3 °F 46.8 °F 55% 30.11 in 10.0 mi NW 6.9 mph - N/A   Clear
12:35 PM 64.2 °F 46.8 °F 53% 30.11 in 10.0 mi WNW 3.5 mph - N/A   Clear
12:55 PM 65.3 °F 44.8 °F 47% 30.10 in 10.0 mi NW 8.1 mph - N/A   Clear
1:15 PM 66.4 °F 44.6 °F 45% 30.09 in 10.0 mi West 8.1 mph - N/A   Clear
1:35 PM 67.5 °F 42.3 °F 40% 30.08 in 10.0 mi WNW 4.6 mph - N/A   Clear
1:55 PM 68.2 °F 39.2 °F 35% 30.07 in 10.0 mi West 5.8 mph - N/A   Clear
2:15 PM 69.6 °F 34.2 °F 27% 30.06 in 10.0 mi NW 9.2 mph - N/A   Clear
2:35 PM 69.6 °F 34.2 °F 27% 30.06 in 10.0 mi WNW 5.8 mph - N/A   Clear
2:55 PM 70.2 °F 33.1 °F 25% 30.04 in 10.0 mi WNW 5.8 mph - N/A   Clear
3:15 PM 70.2 °F 32.4 °F 25% 30.05 in 10.0 mi West 5.8 mph - N/A   Clear
3:35 PM 70.9 °F 34.0 °F 26% 30.04 in 10.0 mi WNW 8.1 mph - N/A   Clear
3:55 PM 71.6 °F 30.6 °F 22% 30.03 in 10.0 mi WNW 8.1 mph - N/A   Clear
4:15 PM 72.0 °F 29.3 °F 21% 30.02 in 10.0 mi WNW 8.1 mph 16.1 mph N/A   Clear
4:35 PM 72.0 °F 30.2 °F 21% 30.02 in 10.0 mi NW 10.4 mph - N/A   Clear
4:55 PM 72.3 °F 24.8 °F 17% 30.02 in 10.0 mi WNW 6.9 mph 17.3 mph N/A   Clear
5:15 PM 72.0 °F 27.7 °F 19% 30.02 in 10.0 mi NW 6.9 mph - N/A   Clear
5:35 PM 71.6 °F 30.0 °F 21% 30.02 in 10.0 mi NW 6.9 mph - N/A   Clear
5:55 PM 71.6 °F 25.3 °F 18% 30.02 in 10.0 mi NW 12.7 mph 16.1 mph N/A   Clear
6:15 PM 71.1 °F 22.8 °F 16% 30.02 in 10.0 mi WNW 4.6 mph - N/A   Clear
6:35 PM 70.3 °F 23.7 °F 17% 30.03 in 10.0 mi NW 6.9 mph - N/A   Clear
6:55 PM 69.8 °F 24.4 °F 18% 30.03 in 10.0 mi NW 8.1 mph - N/A   Clear
7:15 PM 68.0 °F 24.1 °F 19% 30.03 in 10.0 mi NW 9.2 mph - N/A   Clear
7:35 PM 65.7 °F 26.4 °F 23% 30.04 in 10.0 mi WNW 4.6 mph - N/A   Clear
7:55 PM 62.6 °F 28.2 °F 27% 30.05 in 10.0 mi West 4.6 mph - N/A   Clear
8:15 PM 61.0 °F 25.5 °F 26% 30.06 in 10.0 mi WNW 3.5 mph - N/A   Clear
8:35 PM 60.8 °F 23.2 °F 24% 30.07 in 10.0 mi Calm Calm - N/A   Clear
8:55 PM 58.1 °F 30.2 °F 35% 30.07 in 10.0 mi Calm Calm - N/A   Clear
9:15 PM 52.7 °F 39.6 °F 61% 30.08 in 10.0 mi WNW 3.5 mph - N/A   Clear
9:35 PM 52.3 °F 38.7 °F 60% 30.08 in 10.0 mi Calm Calm - N/A   Clear
9:55 PM 50.4 °F 40.3 °F 68% 30.08 in 10.0 mi Calm Calm - N/A   Clear
10:15 PM 48.6 °F 39.6 °F 71% 30.09 in 10.0 mi Calm Calm - N/A   Clear
10:35 PM 46.6 °F 37.2 °F 70% 30.09 in 10.0 mi Calm Calm - N/A   Clear
10:55 PM 45.5 °F 39.0 °F 78% 30.09 in 10.0 mi Calm Calm - N/A   Clear
11:15 PM 44.6 °F 39.0 °F 81% 30.10 in 10.0 mi Calm Calm - N/A   Clear
11:35 PM 43.3 °F 38.3 °F 82% 30.11 in 10.0 mi Calm Calm - N/A   Clear
11:55 PM 44.2 °F 36.5 °F 74% 30.10 in 10.0 mi Calm Calm - N/A   Clear